EW8130 Weather Reports


time (UTC)temp
C
wind
direction
speed
KPH
gust
KPH
rain 1hr
cm
rain 24hr
cm
rain mn
cm
humidity
%
barometer
mb
20260506163035 13 284 0.0 16.1 0.00 0.00 0.00 81 993.6
20260506161530 12 259 1.6 14.5 0.00 0.00 0.00 85 993.0
20260506160033 12 249 0.0 3.2 0.00 0.00 0.00 86 993.5
20260506154528 12 279 0.0 0.0 0.00 0.00 0.00 85 993.8
20260506153027 12 267 0.0 12.9 0.00 0.00 0.00 83 994.0
20260506151527 12 222 0.0 1.6 0.00 0.00 0.00 83 995.0
20260506150023 12 242 4.8 19.3 0.00 0.00 0.00 83 993.7
20260506144527 12 243 0.0 11.3 0.00 0.00 0.00 83 993.6
20260506143024 12 283 0.0 1.6 0.00 0.00 0.00 82 993.2
20260506141528 12 271 0.0 1.6 0.00 0.00 0.00 83 992.9
20260506140017 12 180 1.6 16.1 0.00 0.00 0.00 84 992.6
20260506134516 12 253 0.0 1.6 0.00 0.00 0.00 84 992.6
20260506133015 12 235 0.0 6.4 0.00 0.00 0.00 83 992.2
20260506131513 12 298 0.0 14.5 0.00 0.00 0.00 82 992.0
20260506130012 12 274 0.0 20.9 0.00 0.00 0.00 81 992.1
20260506124509 12 251 0.0 12.9 0.00 0.00 0.00 80 991.8
20260506123007 12 228 0.0 14.5 0.00 0.00 0.00 80 991.4
20260506121511 13 244 0.0 8.0 0.00 0.00 0.00 79 991.3
20260506120008 13 241 1.6 16.1 0.00 0.00 0.00 78 991.3
20260506114602 13 222 0.0 11.3 0.00 0.00 0.00 78 991.1
20260506113058 13 256 0.0 16.1 0.00 0.00 0.00 78 990.7
20260506111555 13 231 0.0 3.2 0.00 0.00 0.00 76 990.6
20260506110104 14 252 0.0 1.6 0.00 0.00 0.00 77 990.2
20260506103050 14 254 0.0 1.6 0.00 0.00 0.00 76 989.8
20260506101547 14 246 0.0 14.5 0.00 0.00 0.00 77 989.4
20260506100053 14 279 0.0 1.6 0.00 0.00 0.00 77 989.2
20260506094544 14 281 0.0 8.0 0.00 0.00 0.00 76 989.1
20260506093042 15 273 0.0 16.1 0.00 0.00 0.00 76 989.2
20260506091541 15 233 0.0 3.2 0.00 0.00 0.00 77 989.0
20260506090041 15 295 0.0 1.6 0.00 0.00 0.00 78 989.0
20260506084610 15 290 0.0 0.0 0.00 0.00 0.00 78 988.7
20260506083039 15 291 0.0 1.6 0.00 0.00 0.00 78 988.5
20260506081548 15 262 0.0 1.6 0.00 0.00 0.00 78 988.4
20260506073027 16 276 0.0 1.6 0.00 0.00 0.00 78 988.6
20260506071526 16 253 0.0 1.6 0.00 0.00 0.00 79 988.6
20260506061517 17 286 0.0 4.8 0.00 0.00 0.00 79 988.3
20260506044602 20 205 1.6 11.3 0.00 0.00 0.00 76 988.0
20260506043058 20 359 0.0 3.2 0.00 0.00 0.00 76 987.7
20260506041606 21 359 0.0 6.4 0.00 0.00 0.00 76 987.5
20260506040053 21 359 0.0 1.6 0.00 0.00 0.00 76 987.4
20260506034554 22 359 0.0 14.5 0.00 0.00 0.00 75 987.1
20260506033050 22 280 0.0 12.9 0.00 0.00 0.00 73 986.9
20260506031551 23 359 0.0 3.2 0.00 0.00 0.00 73 986.9
20260506030045 23 236 0.0 4.8 0.00 0.00 0.00 72 986.5
20260506024542 23 359 0.0 3.2 0.00 0.00 0.00 73 986.2
20260506023059 23 291 0.0 1.6 0.00 0.00 0.00 73 985.4
20260506021604 25 249 0.0 12.9 0.00 0.00 0.00 71 985.1
20260506020040 26 89 0.0 1.6 0.00 0.00 0.00 78 984.5
20260506014539 26 126 0.0 1.6 0.00 0.00 0.00 78 984.7
20260506013039 26 112 0.0 1.6 0.00 0.00 0.00 78 984.8
20260506011540 26 135 0.0 1.6 0.00 0.00 0.00 77 984.2
20260506010038 27 150 0.0 3.2 0.00 0.00 0.00 77 984.1
20260506004537 27 182 0.0 1.6 0.00 0.00 0.00 76 984.3
20260506003039 27 133 0.0 9.7 0.00 0.00 0.00 76 983.8
20260506001537 27 83 0.0 12.9 0.00 0.00 0.00 75 983.5
20260506000036 27 107 0.0 12.9 0.00 0.00 0.00 74 983.4
20260505234535 28 58 0.0 14.5 0.00 0.00 0.00 74 983.3
20260505233037 28 115 0.0 16.1 0.00 0.00 0.00 72 983.3
20260505231547 28 93 0.0 17.7 0.00 0.00 0.00 72 983.4
20260505230036 29 144 1.6 16.1 0.00 0.00 0.00 70 983.0
20260505224534 30 75 0.0 14.5 0.00 0.00 0.00 69 982.9
20260505223032 30 77 1.6 16.1 0.00 0.00 0.00 69 982.8
20260505221534 30 76 0.0 14.5 0.00 0.00 0.00 69 982.9
20260505220032 30 123 0.0 16.1 0.00 0.00 0.00 68 982.9
20260505214542 31 104 1.6 11.3 0.00 0.00 0.00 66 982.9
20260505213036 30 68 0.0 14.5 0.00 0.00 0.00 65 983.0
20260505211527 30 114 0.0 16.1 0.00 0.00 0.00 65 983.3
20260505210026 30 66 0.0 3.2 0.00 0.00 0.00 66 983.3
20260505204526 30 99 0.0 12.9 0.00 0.00 0.00 65 983.6
20260505203030 30 118 1.6 12.9 0.00 0.00 0.00 66 983.7
20260505201530 30 93 1.6 16.1 0.00 0.00 0.00 66 983.8
20260505200021 29 83 0.0 9.7 0.00 0.00 0.00 66 983.9
20260505194517 28 119 3.2 16.1 0.00 0.00 0.00 69 983.9
20260505193024 28 111 0.0 20.9 0.00 0.00 0.00 69 983.9
20260505191516 28 75 6.4 20.9 0.00 0.00 0.00 69 984.1
20260505190013 28 77 6.4 22.5 0.00 0.00 0.00 71 984.2
20260505184510 27 57 0.0 17.7 0.00 0.00 0.00 71 984.4
20260505183017 27 74 6.4 22.5 0.00 0.00 0.00 71 984.4
20260505181507 27 106 1.6 17.7 0.00 0.00 0.00 72 984.5
20260505180013 27 135 0.0 16.1 0.00 0.00 0.00 73 984.5
20260505174508 27 87 1.6 14.5 0.00 0.00 0.00 71 984.6
20260505173004 27 85 0.0 12.9 0.00 0.00 0.00 73 984.5
20260505171506 27 97 6.4 22.5 0.00 0.00 0.00 73 984.6
20260505170111 26 117 1.6 17.7 0.00 0.00 0.00 75 984.7
20260505164556 25 108 1.6 30.6 0.00 0.00 0.00 76 984.6